Location: Fontevrault
(47.1823°N, 0.0493°E)
Time: 09:24:53
(UTC+00:00)

ATLAS 3B R/B - Pass Details

Date: 16 June 2021
Orbit: 1003 x 1191 km, 63.8° (Epoch: 21 July)

Event Time Altitude Azimuth Distance (km) Brightness Sun altitude
Exits shadow 21:18:02 - 176° (S) 3,031 4.6 -10.5°
Reaches altitude 10° 21:18:50 10° 172° (S) 2,775 4.4 -10.6°
Maximum altitude 21:24:24 31° 113° (ESE) 1,709 3.3 -11.1°
Drops below altitude 10° 21:30:07 10° 54° (NE) 2,857 5.0 -11.7°
Sets 21:33:04 0° 45° (NE) 3,842 5.8 -12.0°
